SCP
0 0 0 0 0 0 0 0 0 0 0 0 0 0 0 0 0 0 0 0 0 0 1 1 1 1 0 0 1 1 0 0 0 0 0 0 0 0 0 0 0 0 0 0 0 0 0 0 0
0 0 0 0 0 0 0 0 0 0 0 0 0 0 0 0 0 0 0 0 0 1 1 1 1 1 1 1 1 1 1 0 0 0 0 0 0 0 0 0 0 0 0 0 0 0 0 0 0
0 0 0 0 0 0 0 0 0 0 0 0 0 0 0 0 0 0 0 0 0 1 1 1 1 1 1 1 1 1 1 1 1 0 0 0 0 0 0 0 0 0 0 0 0 0 0 0 0
0 0 0 0 0 0 0 0 0 0 0 0 0 0 0 0 0 0 0 0 1 1 1 1 1 1 1 1 1 1 1 1 1 1 0 0 0 0 0 0 0 0 0 0 0 0 0 0 0
0 0 0 0 0 0 0 0 0 0 0 0 0 0 0 0 0 0 0 0 1 1 1 1 1 1 1 1 0 1 1 1 1 0 0 0 0 0 0 0 0 0 0 0 0 0 0 0 0
0 0 0 0 0 0 0 0 0 0 0 0 0 0 0 0 0 0 0 1 1 1 1 1 1 1 1 0 0 1 1 1 0 0 0 0 0 0 0 0 0 0 0 0 0 0 0 0 0
0 0 0 0 0 0 0 0 0 0 0 0 0 0 0 0 0 0 0 1 1 1 1 1 1 1 1 0 0 0 1 0 0 0 0 0 0 0 0 0 0 0 0 0 0 0 0 0 0
0 0 0 0 0 0 0 0 0 0 0 0 0 0 0 0 0 0 0 1 1 1 1 1 1 0 0 0 0 0 0 0 0 0 0 0 0 0 0 0 0 0 0 0 0 0 0 0 0
1 0 0 0 0 0 0 0 0 0 0 0 0 0 0 0 0 0 0 0 1 1 1 1 0 0 0 0 0 0 0 0 0 0 0 0 0 0 0 0 0 0 0 0 0 0 0 0 0
0 0 0 0 0 0 0 0 0 0 0 0 0 0 0 0 0 0 0 0 0 0 1 1 1 0 0 0 0 0 0 0 0 0 0 0 0 0 0 0 0 0 0 0 0 0 0 0 0
0 0 0 0 0 0 0 0 0 0 0 0 0 0 0 0 0 0 0 0 0 0 0 1 1 0 0 0 0 0 0 0 0 0 0 0 0 0 0 0 0 0 0 0 0 0 0 0 0
0 0 0 0 0 0 0 0 0 0 0 0 0 0 0 0 0 0 0 0 0 0 0 1 1 0 0 0 0 0 0 0 0 0 0 0 0 0 0 0 0 0 0 0 0 0 0 0 0
0 0 0 0 0 0 0 0 0 0 0 0 0 0 0 0 0 0 0 0 0 0 0 0 1 0 0 0 0 0 0 0 0 0 0 0 0 0 0 0 0 0 0 0 0 0 0 0 0
0 0 0 0 0 0 0 0 0 0 0 0 0 0 0 0 0 0 0 0 0 0 0 0 1 0 0 0 0 0 0 0 0 0 0 0 0 0 0 0 0 0 0 0 0 0 0 0 0
0 0 0 0 0 0 0 0 0 0 0 0 0 0 0 0 0 0 0 0 0 0 0 0 1 0 0 0 0 0 0 0 0 0 0 0 0 0 0 0 0 0 0 0 0 0 0 0 0
0 0 0 0 0 0 0 0 0 0 0 0 0 0 0 0 0 0 0 0 0 0 0 0 0 1 0 0 0 0 0 0 0 0 0 0 0 0 0 0 0 0 0 0 0 0 0 0 0
0 0 0 0 0 0 0 0 0 0 0 0 0 0 0 0 0 0 0 0 0 0 0 0 0 1 0 0 0 0 0 0 0 0 0 0 0 0 0 0 0 0 0 0 0 0 0 0 0
0 0 0 0 0 0 0 0 0 0 0 0 0 0 0 0 0 0 0 0 0 0 0 0 0 0 0 0 0 0 0 0 0 0 0 0 0 0 0 0 0 0 0 0 0 0 0 0 0
0 0 0 0 0 0 0 0 0 0 0 0 0 0 0 0 0 0 0 0 0 0 0 0 0 0 0 0 0 0 0 0 0 0 0 0 0 0 0 0 0 0 0 0 0 0 0 0 0
0 0 0 0 0 0 0 0 0 0 0 0 0 0 0 0 0 0 0 0 0 0 0 0 0 0 0 0 0 0 0 0 0 0 0 0 0 0 0 0 0 0 0 0 0 0 0 0 0
0 0 0 0 0 0 0 0 0 0 0 0 0 0 0 0 0 0 0 0 0 0 0 0 0 0 0 0 0 0 0 0 0 0 0 0 0 0 0 0 0 0 0 0 0 0 0 0 0
0 0 0 0 0 0 0 0 0 0 0 0 0 0 0 0 0 0 0 0 0 0 0 0 0 0 0 0 0 0 0 0 0 0 0 0 0 0 0 0 0 0 0 0 0 0 0 0 0
0 0 0 0 0 0 0 0 0 0 0 0 0 0 0 0 0 0 0 0 0 0 0 0 0 0 0 0 0 0 0 0 0 0 0 0 0 0 0 0 0 0 0 0 0 0 0 0 0
0 0 0 0 0 0 0 0 0 0 0 0 0 0 0 0 0 0 0 0 0 0 0 0 0 0 0 0 0 0 0 0 0 0 0 0 0 0 0 0 0 0 0 0 0 0 0 0 0
0 0 0 0 0 0 0 0 0 0 0 0 0 0 0 0 0 0 0 0 0 0 0 0 0 0 0 0 0 0 0 0 0 0 0 0 0 0 0 0 0 0 0 0 0 0 0 0 0
0 0 0 0 0 0 0 0 0 0 0 0 0 0 0 0 0 0 0 0 0 0 0 0 0 0 0 0 0 0 0 0 0 0 0 0 0 0 0 0 0 0 0 0 0 0 0 0 0
0 0 0 0 0 0 0 0 0 0 0 0 0 0 0 0 0 0 0 0 0 0 0 0 0 0 0 0 0 0 0 0 0 0 0 0 0 0 0 0 0 0 0 0 0 0 0 0 0
0 0 0 0 0 0 0 0 0 0 0 0 0 0 0 0 0 0 0 0 0 0 0 0 0 0 0 0 0 0 0 0 0 0 0 0 0 0 0 0 0 0 0 0 0 0 0 0 0
0 0 0 0 0 0 0 0 0 0 0 0 0 0 0 0 0 0 0 0 0 0 0 0 0 0 0 0 0 0 0 0 0 0 0 0 0 0 0 0 0 0 0 0 0 0 0 0 0
0 0 0 0 0 0 0 0 0 0 0 0 0 0 0 0 0 0 0 0 0 0 0 0 0 0 0 0 0 0 0 0 0 0 0 0 0 0 0 0 0 0 0 0 0 0 0 0 0
Wind_Speed
4 3 4 4 7 8 13 10 8 6 7 6 6 6 7 7 4 1 5 14 16 19 19 21 20 20 19 18 17 16 15 14 13 13 13 13 13 13 13 13 13 13 13 13 13 13 14 14 14
4 4 5 6 8 11 11 10 12 10 4 4 6 7 7 6 1 5 8 14 18 20 18 19 21 20 19 18 17 16 15 14 13 13 13 13 13 13 13 13 13 13 13 13 13 13 13 13 14
4 4 6 6 10 12 8 7 9 7 5 6 6 6 5 3 5 7 10 17 19 19 17 19 20 20 20 19 18 17 16 15 14 14 13 13 13 13 13 13 13 13 12 12 12 12 12 13 13
5 6 6 10 16 15 10 4 3 5 6 7 7 6 4 2 3 7 15 19 20 19 17 19 20 20 20 19 18 17 16 15 15 14 14 13 13 13 13 13 12 12 12 12 11 11 12 12 12
5 6 11 14 18 14 11 9 6 7 7 8 9 6 6 4 5 11 17 19 19 18 17 19 20 20 19 19 18 17 16 15 15 14 14 13 13 13 12 12 12 11 11 11 11 11 11 11 11
7 7 12 16 17 14 12 11 10 11 10 8 8 8 5 6 9 14 17 17 17 17 16 18 20 19 19 18 18 17 16 16 15 14 14 13 13 13 12 11 11 10 10 10 10 10 10 10 10
9 10 15 16 15 15 13 11 13 13 13 11 8 8 7 9 9 14 16 16 16 16 15 16 17 17 18 17 17 17 16 16 15 14 14 13 13 12 12 11 10 10 9 9 9 8 9 9 9
8 8 16 16 16 15 10 9 10 14 13 7 8 9 8 12 13 15 15 14 15 15 15 15 16 16 16 15 15 15 15 15 14 13 12 12 11 11 11 10 9 9 8 8 8 8 8 8 8
8 12 17 17 14 11 8 10 8 6 8 7 7 2 4 17 17 17 15 14 15 15 15 15 15 15 15 14 14 14 14 13 13 12 12 10 9 10 9 8 8 8 8 8 8 8 7 6 7
11 16 21 14 12 10 9 10 8 8 11 10 8 5 10 17 19 20 19 20 19 19 18 15 15 15 14 11 12 11 11 12 11 10 12 9 7 6 7 9 7 7 7 8 7 7 6 3 4
14 19 18 16 14 11 10 10 8 11 12 13 14 14 16 18 19 20 20 21 21 20 18 16 15 14 14 11 10 8 7 8 10 11 11 8 7 6 6 5 6 6 6 5 6 5 3 2 2
17 19 18 16 14 13 13 11 11 14 12 7 9 13 18 20 21 21 21 20 19 19 19 17 16 14 14 12 10 9 8 8 8 9 11 8 6 6 6 4 5 5 4 4 3 2 3 3 2
23 20 17 17 15 15 15 16 15 15 12 6 6 13 18 20 21 20 19 18 18 20 20 19 17 16 14 12 10 9 9 9 9 9 10 10 7 7 6 5 5 5 4 4 3 3 3 2 2
17 19 19 17 17 15 17 18 17 17 13 10 11 14 17 20 21 19 18 19 20 20 20 19 19 18 16 13 11 10 9 9 9 9 10 11 8 7 7 6 5 5 4 4 3 3 2 2 1
16 17 19 20 19 16 14 21 23 19 14 14 14 15 16 18 19 20 21 21 21 20 20 20 19 18 18 16 14 10 9 10 9 9 11 11 10 9 8 6 6 5 5 5 4 3 2 1 1
14 18 21 20 20 18 17 24 20 17 18 19 17 16 15 17 19 20 20 19 19 19 20 20 16 18 18 16 14 10 10 10 9 9 10 12 12 11 8 7 6 6 5 5 4 3 3 2 1
15 20 24 21 19 17 21 23 17 15 17 19 19 18 17 17 19 19 19 19 19 19 20 20 20 20 18 17 13 11 10 10 9 9 9 11 12 12 9 7 7 7 6 5 4 4 3 2 2
20 22 23 23 16 20 23 23 17 14 17 19 19 19 18 18 19 19 19 19 18 18 19 19 20 19 17 14 11 9 10 10 10 10 11 13 12 13 11 8 9 8 6 6 6 5 3 2 2
20 21 22 20 15 18 23 25 22 18 17 19 20 19 19 19 19 17 17 18 18 18 19 20 20 19 16 13 12 12 12 11 11 11 13 14 13 14 12 8 9 9 8 8 7 5 5 3 3
23 23 23 17 13 16 20 24 22 21 21 20 21 20 20 19 18 16 16 17 19 20 21 21 21 21 20 15 14 12 12 10 10 9 12 14 14 14 11 12 10 10 8 9 8 7 5 3 4
25 25 23 17 11 14 14 21 23 22 22 21 21 21 20 20 20 19 18 19 19 20 22 19 22 22 22 19 13 10 9 8 9 11 12 15 16 15 14 14 12 11 10 9 9 9 8 5 4
23 23 21 17 14 12 15 15 20 21 21 22 22 21 22 20 19 18 17 18 20 20 20 21 22 22 22 20 17 18 14 14 16 13 12 14 16 16 15 14 14 12 10 10 10 9 7 6 5
20 16 18 18 17 16 16 16 16 17 21 23 23 23 22 20 19 18 17 17 18 18 18 19 21 22 22 22 21 20 17 15 12 12 15 15 14 16 15 15 14 12 10 11 11 10 9 7 6
13 12 12 13 12 19 23 20 17 17 22 21 22 22 21 20 18 18 16 15 15 15 16 17 20 21 22 22 22 22 21 18 16 16 15 13 11 12 16 15 14 13 11 12 11 10 11 8 8
15 12 9 12 14 16 18 20 18 15 18 20 19 19 18 18 18 17 16 16 15 16 17 18 20 21 22 23 22 23 22 20 19 18 16 14 12 12 16 15 14 13 12 11 11 10 10 10 9
20 20 13 11 13 13 15 19 16 17 16 17 17 16 16 16 16 16 16 15 15 16 17 18 20 20 21 22 22 21 21 15 14 17 14 15 12 13 15 16 15 14 13 12 11 9 9 9 9
16 19 16 10 9 11 12 14 15 13 16 17 17 17 17 17 16 15 15 14 14 15 17 18 19 19 20 21 21 20 20 18 16 16 15 12 12 11 15 15 15 14 13 12 12 8 10 9 8
15 12 10 10 10 13 13 17 14 15 18 18 19 19 18 15 15 14 13 13 12 12 14 16 17 18 19 19 18 15 18 18 16 14 15 14 14 13 14 14 14 13 13 12 11 9 9 9 8
12 14 10 9 8 10 12 12 11 15 17 18 18 17 16 15 13 12 11 11 11 11 12 14 15 16 16 17 17 17 16 16 16 14 15 14 13 13 14 14 14 14 13 13 12 10 10 11 9
10 12 12 10 9 10 9 7 4 10 10 11 13 13 13 12 11 10 10 10 10 11 12 13 13 14 15 15 15 16 15 15 15 14 14 14 13 13 13 13 13 13 13 13 13 12 11 11 10
Wind_Direction
179 196 215 214 219 228 233 222 219 200 201 204 192 200 212 201 201 80 97 155 149 152 156 158 157 154 152 149 144 140 138 134 131 126 122 119 115 110 107 103 100 96 93 91 88 84 82 81 80
193 193 212 221 231 227 228 222 219 216 193 159 188 206 208 204 125 103 141 154 153 153 156 157 155 155 153 150 146 142 139 136 134 130 128 125 120 115 110 106 102 98 96 93 90 87 85 84 81
185 216 224 220 229 231 227 209 223 212 198 195 186 207 216 178 151 144 147 155 155 154 156 153 156 156 154 151 147 144 141 139 137 134 131 128 124 118 113 109 104 101 99 97 93 90 88 86 83
198 205 224 235 232 232 241 206 174 186 192 209 204 186 173 78 124 134 145 157 156 156 156 153 159 157 154 152 150 148 145 144 141 137 134 131 126 121 117 113 109 106 102 99 96 93 91 90 86
220 222 223 231 238 237 238 243 233 218 197 193 206 197 159 115 117 139 153 159 158 157 157 156 160 158 156 155 153 151 149 148 144 141 137 134 128 124 121 118 115 112 108 105 101 97 95 92 87
209 222 229 232 235 236 236 233 233 235 224 208 209 203 153 127 147 151 156 161 159 157 158 157 162 160 159 158 156 155 153 150 147 145 141 137 133 131 128 124 121 118 114 110 105 101 98 94 89
225 223 236 241 243 241 236 227 229 230 225 214 205 197 155 152 150 153 157 160 159 161 162 162 165 163 161 161 160 159 157 153 151 148 144 140 139 138 134 130 127 122 118 114 109 104 100 95 91
236 237 237 237 240 243 233 219 231 231 228 213 205 205 180 152 148 153 155 160 162 167 169 168 169 167 166 164 162 160 158 156 154 148 141 139 141 141 136 137 130 126 124 119 111 104 98 92 88
223 233 233 228 233 238 219 220 220 230 215 195 206 240 93 133 148 152 156 164 170 175 176 175 173 171 169 167 161 162 160 157 154 148 139 150 157 150 149 132 131 130 127 120 111 104 100 103 98
213 231 233 234 235 240 223 225 212 200 204 200 191 148 137 148 160 165 170 174 178 181 181 180 177 173 170 166 166 171 168 165 171 163 161 167 159 152 146 124 130 128 124 121 110 110 126 155 114
217 234 239 238 237 244 240 232 220 221 218 214 204 176 161 166 174 180 182 182 182 181 181 182 179 176 173 170 171 171 171 171 176 171 170 166 159 156 161 155 151 150 154 144 134 156 133 104 80
229 236 239 239 233 234 238 238 231 229 232 226 218 171 169 177 184 189 188 187 183 183 185 184 181 180 180 176 175 175 174 176 175 175 174 171 168 172 170 173 166 165 164 154 164 151 129 117 106
230 237 235 239 238 238 241 241 243 239 239 241 205 173 185 189 193 196 193 188 185 187 186 187 185 184 183 181 179 182 180 178 177 176 181 180 176 179 176 177 173 175 167 171 173 169 146 136 110
232 236 238 236 234 234 239 245 243 241 234 228 208 199 201 200 199 195 194 192 191 191 189 187 189 188 185 186 185 185 183 181 182 181 185 186 184 183 183 180 181 179 178 176 180 169 163 146 134
239 239 238 234 232 231 237 245 238 238 231 229 223 215 211 209 204 201 198 197 195 192 190 189 189 190 189 190 190 188 186 184 186 184 188 190 190 187 187 186 184 182 179 179 181 168 173 148 158
221 229 235 230 224 223 223 242 234 227 227 230 229 223 216 214 211 209 204 202 198 193 191 190 188 192 192 192 191 190 189 188 190 188 189 192 194 193 191 190 189 182 180 185 185 186 183 179 188
213 223 228 228 218 215 220 242 238 225 225 230 229 226 221 218 216 214 208 204 201 196 192 190 191 193 193 193 191 191 190 192 193 192 192 194 196 196 196 195 189 184 188 190 187 195 198 185 175
212 222 228 228 215 215 224 236 234 225 224 230 230 227 223 222 218 214 209 206 202 199 194 193 192 194 192 191 190 190 194 196 197 196 196 195 196 197 198 196 193 187 190 193 193 186 185 181 164
232 231 232 233 223 219 229 236 235 229 227 232 232 228 225 224 223 215 208 203 200 199 197 195 194 193 189 189 190 191 195 197 198 199 199 198 198 197 199 196 194 192 197 197 194 183 179 177 174
229 233 236 238 230 228 238 241 240 235 232 233 234 231 228 227 223 213 208 202 200 199 198 197 197 193 192 194 194 197 196 199 200 197 202 202 201 200 199 200 196 195 199 198 192 188 190 173 194
227 229 231 231 226 230 245 248 240 236 234 235 236 235 232 228 226 217 208 204 201 201 199 198 197 196 195 194 191 188 189 191 195 199 201 203 202 201 200 203 202 198 198 197 195 193 195 188 188
230 227 231 231 226 226 221 248 236 228 227 228 229 229 230 227 227 222 213 206 203 203 200 200 198 197 195 192 192 189 192 196 199 198 199 200 202 203 202 202 204 200 201 201 197 197 200 194 187
231 229 228 229 233 240 227 243 245 222 226 225 224 225 226 225 223 221 215 210 205 202 199 199 199 199 196 194 195 196 201 204 199 196 199 199 200 203 202 202 202 201 202 203 196 193 198 201 199
224 222 229 232 234 238 226 229 247 221 224 224 223 223 223 222 221 221 217 211 207 200 198 198 199 199 197 196 198 200 203 202 197 196 195 196 196 199 202 202 202 201 201 201 197 193 198 202 201
203 198 198 204 214 231 219 225 240 232 225 226 224 221 219 218 217 216 214 210 206 199 197 197 198 199 197 197 199 202 205 203 203 198 197 193 194 196 199 197 200 201 201 197 193 192 197 200 199
207 205 212 209 214 221 213 227 235 230 227 229 231 228 222 218 214 213 211 209 206 201 197 196 198 199 197 198 200 202 203 203 205 204 198 197 197 197 196 196 199 200 197 193 191 192 194 196 199
209 212 226 246 242 232 217 230 239 230 227 225 225 225 222 218 214 213 211 208 205 200 197 197 196 198 197 197 199 201 201 202 203 201 200 199 199 195 194 194 197 197 194 191 188 194 191 192 197
220 208 205 214 216 226 225 227 224 208 216 217 219 221 220 217 215 213 211 207 203 199 195 195 196 197 196 195 197 198 199 201 201 198 198 198 196 192 191 191 194 193 191 190 189 191 189 189 191
203 206 213 211 231 232 229 230 220 217 213 213 214 214 214 210 209 206 203 201 198 192 188 190 193 194 194 195 195 196 198 198 198 198 197 196 194 190 190 189 191 190 189 188 189 189 184 191 189
212 205 203 208 214 230 241 240 181 219 221 220 217 213 213 210 207 202 196 191 189 188 187 187 188 190 191 191 191 193 194 193 195 195 194 192 191 189 188 186 188 189 188 188 190 188 187 190 191